Tracking 29892 objects as of 21-Nov-2024
HD Live streaming from Space Station
objects crossing your sky now

CZ-4C DEB

Track CZ-4C DEB now!
10-day predictions


NORAD ID: 43628
Int'l Code: 2013-065F
Perigee: 670.1 km
Apogee: 922.9 km
Inclination: 100.5 °
Period: 100.6 minutes
Semi major axis: 7167 km
RCS: Unknown
Launch date: November 20, 2013
Source: People's Republic of China (PRC)
Launch site: Taiyaun Space Center, China (TSC)

Note: This is SATELLITE DEBRIS
Your satellite tracking list
Your tracking list is empty




NASA's NSSDC Master Catalog

Two Line Element Set (TLE):
1 43628U 13065E   24323.83573461  .00012443  00000-0  40267-2 0  9994
2 43628 100.5349 171.8663 0176363 324.8324  34.1314 14.30714665321246
Source of the keplerian elements: AFSPC